DMSP 5D-2 F13 DEB, 42259

Orbit data source: Space-Track

DMSP 5D-2 F13 DEB, 42259 is space debris in SSO originally from a launch on Fri, 24 Mar 1995 UTC launched from the Air Force Western Test Range (AFWTR). Debris objects in space refer to the collection of defunct objects orbiting the Earth. Examples of debris include non-operational satellites, rocket bodies, and fragments generated from explosions, collisions, or faulty payload assembly.

Loading next visibility...
Identifier
42259, 1995-015FZ
Orbit
SSO
Country
Flag of USUS
Related business
Manufacturer
Unknown
Mission
Spacecraft
Bus & Motor
Unknown
Mass
Unknown
Launch date (UTC)
1995-03-24 (31 years ago)
Launch vehicle
Unknown
Launch site
Air Force Western Test Range (AFWTR)
Object type
Payload
Rocket body
Debris
Shape & HBR
Unknown shape, 0.1 m
Radar Cross Section
Small (<0.1 m²)

Expand to show TLE details & history
Last TLE update: 2 days ago

TLE from 2 days ago
0 DMSP 5D-2 F13 DEB
1 42259U 95015FZ  25340.03255590  .00006670  00000-0  23247-2 0  9994
2 42259  98.6511   9.3181 0010833 129.1471 231.0679 14.35628486533417
Epoch: 2025-12-06T00:46Z
TLE epoch observation values (Epoch: 2025-12-06T00:46:52.829Z)
Latitude
-0°
Longitude
-77.46814°
Altitude
780.79 km
Speed
7.461 km/s
True Right ascension
00h 37m 16s
True Declination
0° 00' 00"
Sunlit
Object was in daylight at epoch
Visualization orbit readout
Latitude
Unknown
Longitude
Unknown
Altitude
Unknown
Speed
Unknown
Apparent Right ascension
Unknown
Apparent Declination
Unknown
Sunlit
N/A
Visualization observer readout
Local Sidereal Time
14:30:14
Azimuth
Unknown
Elevation
Unknown
Doppler factor
Unknown
Orbital elements
Apogee altitude
777.857 km
Perigee altitude
762.37 km
Semi-major axis
7,148.25 km
Eccentricity
0.00108
Inclination
98.6511°
RAAN
9.3181°
Arg. of periapsis
129.1471°
True anomaly
230.97142°
Mean anomaly
231.0679°
Eccentric anomaly
231.01965°
Mean motion
3.59123 °/min
Orbital period
100.24 mins
BSTAR
0.0023247
Loading maneuver chart data...
Computing Atmospheric mass density...

Documentation

Showing up to 5 results
|